User: anonymous   Login
Location: Unspecified
(0.0000°N, 0.0000°E)
Time: 12:30:39
(UTC+01:00)
Language:

Cosmos 1892 Rocket - Orbit

View from above orbital plane
View from above orbital plane
View from above satellite
View from above satellite

Ground track
Ground track

The orbit data is extracted from the following two-line orbital elements,

1 18422U 87088B   17329.21493174  .00000082  00000-0  72250-5 0  9992
2 18422  82.5133  25.9916 0018036 268.6630 147.0938 14.82951062625689
Epoch (UTC): 25 November 2017 05:09:30
Eccentricity: 0.0018036
inclination: 82.5133°
perigee height: 607 km
apogee height: 632 km
right ascension of ascending node: 25.9916°
argument of perigee: 268.6630°
revolutions per day: 14.82951062
mean anomaly at epoch: 147.0938°
orbit number at epoch: 62568

The dashed part of the orbit path shows where the satellite is in the earth's shadow,  

DLR